owner,sensor,date,latitude,longitude,vertical_datum,wind_speed,wind_to_direction,wind_speed_of_gust,qcFlag 
TCOON,ioos:station:TCOON:031:1,2013-09-01T00:00:00Z,28.4073,-96.7122,0.0,5.0,138.0,6.2,'11111222,11111222,11111222' 
TCOON,ioos:station:TCOON:031:1,2013-09-01T00:06:00Z,28.4073,-96.7122,0.0,5.1,135.0,5.6,'11111222,11111222,11111222' 
TCOON,ioos:station:TCOON:031:1,2013-09-01T00:12:00Z,28.4073,-96.7122,0.0,4.8,132.0,5.6,'11111222,11111222,11111222' 
TCOON,ioos:station:TCOON:031:1,2013-09-01T00:18:00Z,28.4073,-96.7122,0.0,5.2,137.0,6.0,'11111222,11111222,11111222' 
TCOON,ioos:station:TCOON:031:1,2013-09-01T00:24:00Z,28.4073,-96.7122,0.0,4.5,129.0,6.1,'11111222,11111222,11111222' 
TCOON,ioos:station:TCOON:031:1,2013-09-01T00:30:00Z,28.4073,-96.7122,0.0,4.5,138.0,5.5,'11111222,11111222,11111222' 
TCOON,ioos:station:TCOON:031:1,2013-09-01T00:36:00Z,28.4073,-96.7122,0.0,4.6,130.0,5.5,'11111222,11111222,11111222' 
TCOON,ioos:station:TCOON:031:1,2013-09-01T00:42:00Z,28.4073,-96.7122,0.0,4.6,130.0,5.5,'11111222,11111222,11111222' 
TCOON,ioos:station:TCOON:031:1,2013-09-01T00:48:00Z,28.4073,-96.7122,0.0,4.3,129.0,5.0,'11111222,11111222,11111222' 
TCOON,ioos:station:TCOON:031:1,2013-09-01T00:54:00Z,28.4073,-96.7122,0.0,4.7,134.0,5.6,'11111222,11111222,11111222' 
TCOON,ioos:station:TCOON:031:1,2013-09-01T01:00:00Z,28.4073,-96.7122,0.0,4.3,134.0,5.5,'11111222,11111222,11111222' 
TCOON,ioos:station:TCOON:031:1,2013-09-01T01:06:00Z,28.4073,-96.7122,0.0,4.3,133.0,5.3,'11111222,11111222,11111222' 
TCOON,ioos:station:TCOON:031:1,2013-09-01T01:12:00Z,28.4073,-96.7122,0.0,4.2,132.0,5.4,'11111222,11111222,11111222' 
TCOON,ioos:station:TCOON:031:1,2013-09-01T01:18:00Z,28.4073,-96.7122,0.0,4.5,131.0,5.4,'11111222,11111222,11111222' 
TCOON,ioos:station:TCOON:031:1,2013-09-01T01:24:00Z,28.4073,-96.7122,0.0,4.3,135.0,5.3,'11111222,11111222,11111222' 
TCOON,ioos:station:TCOON:031:1,2013-09-01T01:30:00Z,28.4073,-96.7122,0.0,5.3,137.0,6.2,'11111222,11111222,11111222' 
TCOON,ioos:station:TCOON:031:1,2013-09-01T01:36:00Z,28.4073,-96.7122,0.0,5.6,141.0,6.8,'11111222,11111222,11111222' 
TCOON,ioos:station:TCOON:031:1,2013-09-01T01:42:00Z,28.4073,-96.7122,0.0,4.5,128.0,6.4,'11111222,11111222,11111222' 
TCOON,ioos:station:TCOON:031:1,2013-09-01T01:48:00Z,28.4073,-96.7122,0.0,4.5,130.0,5.5,'11111222,11111222,11111222' 
TCOON,ioos:station:TCOON:031:1,2013-09-01T01:54:00Z,28.4073,-96.7122,0.0,4.3,126.0,5.8,'11111222,11111222,11111222' 
TCOON,ioos:station:TCOON:031:1,2013-09-01T02:00:00Z,28.4073,-96.7122,0.0,4.6,130.0,5.5,'11111222,11111222,11111222' 
TCOON,ioos:station:TCOON:031:1,2013-09-01T02:06:00Z,28.4073,-96.7122,0.0,4.4,129.0,5.4,'11111222,11111222,11111222' 
TCOON,ioos:station:TCOON:031:1,2013-09-01T02:12:00Z,28.4073,-96.7122,0.0,4.1,130.0,5.0,'11111222,11111222,11111222' 
TCOON,ioos:station:TCOON:031:1,2013-09-01T02:18:00Z,28.4073,-96.7122,0.0,4.2,131.0,5.1,'11111222,11111222,11111222' 
TCOON,ioos:station:TCOON:031:1,2013-09-01T02:24:00Z,28.4073,-96.7122,0.0,4.2,133.0,5.0,'11111222,11111222,11111222' 
TCOON,ioos:station:TCOON:031:1,2013-09-01T02:30:00Z,28.4073,-96.7122,0.0,4.0,130.0,4.7,'11111222,11111222,11111222' 
TCOON,ioos:station:TCOON:031:1,2013-09-01T02:36:00Z,28.4073,-96.7122,0.0,4.2,133.0,5.6,'11111222,11111222,11111222' 
TCOON,ioos:station:TCOON:031:1,2013-09-01T02:42:00Z,28.4073,-96.7122,0.0,3.9,130.0,4.8,'11111222,11111222,11111222' 
TCOON,ioos:station:TCOON:031:1,2013-09-01T02:48:00Z,28.4073,-96.7122,0.0,4.0,130.0,4.7,'11111222,11111222,11111222' 
TCOON,ioos:station:TCOON:031:1,2013-09-01T02:54:00Z,28.4073,-96.7122,0.0,3.4,128.0,4.6,'11111222,11111222,11111222' 
TCOON,ioos:station:TCOON:031:1,2013-09-01T03:00:00Z,28.4073,-96.7122,0.0,3.7,131.0,4.4,'11111222,11111222,11111222' 
TCOON,ioos:station:TCOON:031:1,2013-09-01T03:06:00Z,28.4073,-96.7122,0.0,3.4,133.0,4.7,'11111222,11111222,11111222' 
TCOON,ioos:station:TCOON:031:1,2013-09-01T03:12:00Z,28.4073,-96.7122,0.0,3.6,132.0,4.2,'11111222,11111222,11111222' 
TCOON,ioos:station:TCOON:031:1,2013-09-01T03:18:00Z,28.4073,-96.7122,0.0,3.6,130.0,4.4,'11111222,11111222,11111222' 
TCOON,ioos:station:TCOON:031:1,2013-09-01T03:24:00Z,28.4073,-96.7122,0.0,3.9,130.0,4.6,'11111222,11111222,11111222' 
TCOON,ioos:station:TCOON:031:1,2013-09-01T03:30:00Z,28.4073,-96.7122,0.0,3.9,132.0,4.7,'11111222,11111222,11111222' 
TCOON,ioos:station:TCOON:031:1,2013-09-01T03:36:00Z,28.4073,-96.7122,0.0,3.6,133.0,4.6,'11111222,11111222,11111222' 
TCOON,ioos:station:TCOON:031:1,2013-09-01T03:42:00Z,28.4073,-96.7122,0.0,4.5,127.0,5.1,'11111222,11111222,11111222' 
TCOON,ioos:station:TCOON:031:1,2013-09-01T03:48:00Z,28.4073,-96.7122,0.0,4.0,131.0,5.0,'11111222,11111222,11111222' 
TCOON,ioos:station:TCOON:031:1,2013-09-01T03:54:00Z,28.4073,-96.7122,0.0,4.2,128.0,5.0,'11111222,11111222,11111222' 
TCOON,ioos:station:TCOON:031:1,2013-09-01T04:00:00Z,28.4073,-96.7122,0.0,4.4,134.0,5.4,'11111222,11111222,11111222' 
TCOON,ioos:station:TCOON:031:1,2013-09-01T04:06:00Z,28.4073,-96.7122,0.0,4.3,132.0,5.6,'11111222,11111222,11111222' 
TCOON,ioos:station:TCOON:031:1,2013-09-01T04:12:00Z,28.4073,-96.7122,0.0,4.6,135.0,5.6,'11111222,11111222,11111222' 
TCOON,ioos:station:TCOON:031:1,2013-09-01T04:18:00Z,28.4073,-96.7122,0.0,5.2,141.0,6.2,'11111222,11111222,11111222' 
TCOON,ioos:station:TCOON:031:1,2013-09-01T04:24:00Z,28.4073,-96.7122,0.0,6.2,147.0,7.1,'11111222,11111222,11111222' 
TCOON,ioos:station:TCOON:031:1,2013-09-01T04:30:00Z,28.4073,-96.7122,0.0,6.0,142.0,7.0,'11111222,11111222,11111222' 
TCOON,ioos:station:TCOON:031:1,2013-09-01T04:36:00Z,28.4073,-96.7122,0.0,7.4,152.0,8.2,'11111222,11111222,11111222' 
TCOON,ioos:station:TCOON:031:1,2013-09-01T04:42:00Z,28.4073,-96.7122,0.0,7.1,144.0,8.5,'11111222,11111222,11111222' 
TCOON,ioos:station:TCOON:031:1,2013-09-01T04:48:00Z,28.4073,-96.7122,0.0,7.2,145.0,8.0,'11111222,11111222,11111222' 
TCOON,ioos:station:TCOON:031:1,2013-09-01T04:54:00Z,28.4073,-96.7122,0.0,6.8,146.0,8.5,'11111222,11111222,11111222' 
TCOON,ioos:station:TCOON:031:1,2013-09-01T05:00:00Z,28.4073,-96.7122,0.0,7.3,149.0,8.4,'11111222,11111222,11111222' 
TCOON,ioos:station:TCOON:031:1,2013-09-01T05:06:00Z,28.4073,-96.7122,0.0,5.6,146.0,8.5,'11111222,11111222,11111222' 
TCOON,ioos:station:TCOON:031:1,2013-09-01T05:12:00Z,28.4073,-96.7122,0.0,6.3,144.0,7.6,'11111222,11111222,11111222' 
TCOON,ioos:station:TCOON:031:1,2013-09-01T05:18:00Z,28.4073,-96.7122,0.0,7.6,150.0,8.8,'11111222,11111222,11111222' 
TCOON,ioos:station:TCOON:031:1,2013-09-01T05:24:00Z,28.4073,-96.7122,0.0,6.3,142.0,8.2,'11111222,11111222,11111222' 
TCOON,ioos:station:TCOON:031:1,2013-09-01T05:30:00Z,28.4073,-96.7122,0.0,6.6,145.0,7.6,'11111222,11111222,11111222' 
TCOON,ioos:station:TCOON:031:1,2013-09-01T05:36:00Z,28.4073,-96.7122,0.0,6.8,147.0,8.5,'11111222,11111222,11111222' 
TCOON,ioos:station:TCOON:031:1,2013-09-01T05:42:00Z,28.4073,-96.7122,0.0,6.5,149.0,8.3,'11111222,11111222,11111222' 
TCOON,ioos:station:TCOON:031:1,2013-09-01T05:48:00Z,28.4073,-96.7122,0.0,6.6,150.0,8.0,'11111222,11111222,11111222' 
TCOON,ioos:station:TCOON:031:1,2013-09-01T05:54:00Z,28.4073,-96.7122,0.0,7.0,146.0,8.4,'11111222,11111222,11111222' 
TCOON,ioos:station:TCOON:031:1,2013-09-01T06:00:00Z,28.4073,-96.7122,0.0,6.6,147.0,7.6,'11111222,11111222,11111222' 
TCOON,ioos:station:TCOON:031:1,2013-09-01T06:06:00Z,28.4073,-96.7122,0.0,7.3,144.0,8.7,'11111222,11111222,11111222' 
TCOON,ioos:station:TCOON:031:1,2013-09-01T06:12:00Z,28.4073,-96.7122,0.0,7.6,150.0,9.2,'11111222,11111222,11111222' 
TCOON,ioos:station:TCOON:031:1,2013-09-01T06:18:00Z,28.4073,-96.7122,0.0,7.5,153.0,8.7,'11111222,11111222,11111222' 
TCOON,ioos:station:TCOON:031:1,2013-09-01T06:24:00Z,28.4073,-96.7122,0.0,7.6,144.0,8.6,'11111222,11111222,11111222' 
TCOON,ioos:station:TCOON:031:1,2013-09-01T06:30:00Z,28.4073,-96.7122,0.0,6.9,155.0,9.1,'11111222,11111222,11111222' 
TCOON,ioos:station:TCOON:031:1,2013-09-01T06:36:00Z,28.4073,-96.7122,0.0,8.0,156.0,8.7,'11111222,11111222,11111222' 
TCOON,ioos:station:TCOON:031:1,2013-09-01T06:42:00Z,28.4073,-96.7122,0.0,7.4,148.0,8.9,'11111222,11111222,11111222' 
TCOON,ioos:station:TCOON:031:1,2013-09-01T06:48:00Z,28.4073,-96.7122,0.0,7.6,151.0,8.7,'11111222,11111222,11111222' 
TCOON,ioos:station:TCOON:031:1,2013-09-01T06:54:00Z,28.4073,-96.7122,0.0,7.5,156.0,8.5,'11111222,11111222,11111222' 
TCOON,ioos:station:TCOON:031:1,2013-09-01T07:00:00Z,28.4073,-96.7122,0.0,6.9,161.0,8.4,'11111222,11111222,11111222' 
TCOON,ioos:station:TCOON:031:1,2013-09-01T07:06:00Z,28.4073,-96.7122,0.0,7.2,156.0,8.1,'11111222,11111222,11111222' 
TCOON,ioos:station:TCOON:031:1,2013-09-01T07:12:00Z,28.4073,-96.7122,0.0,7.5,163.0,9.3,'11111222,11111222,11111222' 
TCOON,ioos:station:TCOON:031:1,2013-09-01T07:18:00Z,28.4073,-96.7122,0.0,7.8,156.0,9.1,'11111222,11111222,11111222' 
TCOON,ioos:station:TCOON:031:1,2013-09-01T07:24:00Z,28.4073,-96.7122,0.0,7.9,162.0,8.7,'11111222,11111222,11111222' 
TCOON,ioos:station:TCOON:031:1,2013-09-01T07:30:00Z,28.4073,-96.7122,0.0,7.3,158.0,9.2,'11111222,11111222,11111222' 
TCOON,ioos:station:TCOON:031:1,2013-09-01T07:36:00Z,28.4073,-96.7122,0.0,7.3,158.0,9.3,'11111222,11111222,11111222' 
TCOON,ioos:station:TCOON:031:1,2013-09-01T07:42:00Z,28.4073,-96.7122,0.0,7.6,166.0,9.0,'11111222,11111222,11111222' 
TCOON,ioos:station:TCOON:031:1,2013-09-01T07:48:00Z,28.4073,-96.7122,0.0,7.4,169.0,8.5,'11111222,11111222,11111222' 
TCOON,ioos:station:TCOON:031:1,2013-09-01T07:54:00Z,28.4073,-96.7122,0.0,7.1,160.0,8.4,'11111222,11111222,11111222' 
TCOON,ioos:station:TCOON:031:1,2013-09-01T08:00:00Z,28.4073,-96.7122,0.0,8.1,160.0,9.2,'11111222,11111222,11111222' 
TCOON,ioos:station:TCOON:031:1,2013-09-01T08:06:00Z,28.4073,-96.7122,0.0,7.7,161.0,8.8,'11111222,11111222,11111222' 
TCOON,ioos:station:TCOON:031:1,2013-09-01T08:12:00Z,28.4073,-96.7122,0.0,7.6,163.0,9.1,'11111222,11111222,11111222' 
TCOON,ioos:station:TCOON:031:1,2013-09-01T08:18:00Z,28.4073,-96.7122,0.0,7.8,162.0,8.8,'11111222,11111222,11111222' 
TCOON,ioos:station:TCOON:031:1,2013-09-01T08:24:00Z,28.4073,-96.7122,0.0,8.0,172.0,9.5,'11111222,11111222,11111222' 
TCOON,ioos:station:TCOON:031:1,2013-09-01T08:30:00Z,28.4073,-96.7122,0.0,7.7,163.0,9.2,'11111222,11111222,11111222' 
TCOON,ioos:station:TCOON:031:1,2013-09-01T08:36:00Z,28.4073,-96.7122,0.0,7.8,175.0,8.7,'11111222,11111222,11111222' 
TCOON,ioos:station:TCOON:031:1,2013-09-01T08:42:00Z,28.4073,-96.7122,0.0,7.4,167.0,8.7,'11111222,11111222,11111222' 
TCOON,ioos:station:TCOON:031:1,2013-09-01T08:48:00Z,28.4073,-96.7122,0.0,7.6,161.0,9.5,'11111222,11111222,11111222' 
TCOON,ioos:station:TCOON:031:1,2013-09-01T08:54:00Z,28.4073,-96.7122,0.0,7.5,168.0,9.1,'11111222,11111222,11111222' 
TCOON,ioos:station:TCOON:031:1,2013-09-01T09:00:00Z,28.4073,-96.7122,0.0,7.8,164.0,9.3,'11111222,11111222,11111222' 
TCOON,ioos:station:TCOON:031:1,2013-09-01T09:06:00Z,28.4073,-96.7122,0.0,8.5,166.0,9.4,'11111222,11111222,11111222' 
TCOON,ioos:station:TCOON:031:1,2013-09-01T09:12:00Z,28.4073,-96.7122,0.0,8.4,167.0,9.2,'11111222,11111222,11111222' 
TCOON,ioos:station:TCOON:031:1,2013-09-01T09:18:00Z,28.4073,-96.7122,0.0,8.2,168.0,9.1,'11111222,11111222,11111222' 
TCOON,ioos:station:TCOON:031:1,2013-09-01T09:24:00Z,28.4073,-96.7122,0.0,7.5,167.0,8.8,'11111222,11111222,11111222' 
TCOON,ioos:station:TCOON:031:1,2013-09-01T09:30:00Z,28.4073,-96.7122,0.0,8.0,164.0,8.8,'11111222,11111222,11111222' 
TCOON,ioos:station:TCOON:031:1,2013-09-01T09:36:00Z,28.4073,-96.7122,0.0,7.0,168.0,8.8,'11111222,11111222,11111222' 
TCOON,ioos:station:TCOON:031:1,2013-09-01T09:42:00Z,28.4073,-96.7122,0.0,7.3,172.0,8.6,'11111222,11111222,11111222' 
TCOON,ioos:station:TCOON:031:1,2013-09-01T09:48:00Z,28.4073,-96.7122,0.0,7.3,175.0,8.4,'11111222,11111222,11111222' 
TCOON,ioos:station:TCOON:031:1,2013-09-01T09:54:00Z,28.4073,-96.7122,0.0,7.8,176.0,8.8,'11111222,11111222,11111222' 
TCOON,ioos:station:TCOON:031:1,2013-09-01T10:00:00Z,28.4073,-96.7122,0.0,7.3,169.0,8.2,'11111222,11111222,11111222' 
TCOON,ioos:station:TCOON:031:1,2013-09-01T10:06:00Z,28.4073,-96.7122,0.0,7.2,168.0,8.3,'11111222,11111222,11111222' 
TCOON,ioos:station:TCOON:031:1,2013-09-01T10:12:00Z,28.4073,-96.7122,0.0,7.4,170.0,8.6,'11111222,11111222,11111222' 
TCOON,ioos:station:TCOON:031:1,2013-09-01T10:18:00Z,28.4073,-96.7122,0.0,6.4,177.0,7.7,'11111222,11111222,11111222' 
TCOON,ioos:station:TCOON:031:1,2013-09-01T10:24:00Z,28.4073,-96.7122,0.0,6.7,188.0,7.7,'11111222,11111222,11111222' 
TCOON,ioos:station:TCOON:031:1,2013-09-01T10:30:00Z,28.4073,-96.7122,0.0,7.1,190.0,8.2,'11111222,11111222,11111222' 
TCOON,ioos:station:TCOON:031:1,2013-09-01T10:36:00Z,28.4073,-96.7122,0.0,7.0,186.0,8.1,'11111222,11111222,11111222' 
TCOON,ioos:station:TCOON:031:1,2013-09-01T10:42:00Z,28.4073,-96.7122,0.0,6.8,183.0,7.7,'11111222,11111222,11111222' 
TCOON,ioos:station:TCOON:031:1,2013-09-01T10:48:00Z,28.4073,-96.7122,0.0,6.9,187.0,7.8,'11111222,11111222,11111222' 
TCOON,ioos:station:TCOON:031:1,2013-09-01T10:54:00Z,28.4073,-96.7122,0.0,6.7,191.0,8.1,'11111222,11111222,11111222' 
TCOON,ioos:station:TCOON:031:1,2013-09-01T11:00:00Z,28.4073,-96.7122,0.0,6.6,185.0,8.2,'11111222,11111222,11111222' 
TCOON,ioos:station:TCOON:031:1,2013-09-01T11:06:00Z,28.4073,-96.7122,0.0,6.0,186.0,7.1,'11111222,11111222,11111222' 
TCOON,ioos:station:TCOON:031:1,2013-09-01T11:12:00Z,28.4073,-96.7122,0.0,5.2,200.0,6.2,'11111222,11111222,11111222' 
TCOON,ioos:station:TCOON:031:1,2013-09-01T11:18:00Z,28.4073,-96.7122,0.0,5.6,189.0,6.5,'11111222,11111222,11111222' 
TCOON,ioos:station:TCOON:031:1,2013-09-01T11:24:00Z,28.4073,-96.7122,0.0,5.0,193.0,6.0,'11111222,11111222,11111222' 
TCOON,ioos:station:TCOON:031:1,2013-09-01T11:30:00Z,28.4073,-96.7122,0.0,4.6,192.0,5.7,'11111222,11111222,11111222' 
TCOON,ioos:station:TCOON:031:1,2013-09-01T11:36:00Z,28.4073,-96.7122,0.0,4.8,195.0,5.7,'11111222,11111222,11111222' 
TCOON,ioos:station:TCOON:031:1,2013-09-01T11:42:00Z,28.4073,-96.7122,0.0,4.8,194.0,5.8,'11111222,11111222,11111222' 
TCOON,ioos:station:TCOON:031:1,2013-09-01T11:48:00Z,28.4073,-96.7122,0.0,4.9,198.0,5.9,'11111222,11111222,11111222' 
TCOON,ioos:station:TCOON:031:1,2013-09-01T11:54:00Z,28.4073,-96.7122,0.0,4.2,199.0,5.3,'11111222,11111222,11111222' 
TCOON,ioos:station:TCOON:031:1,2013-09-01T12:00:00Z,28.4073,-96.7122,0.0,3.9,195.0,4.8,'11111222,11111222,11111222' 
TCOON,ioos:station:TCOON:031:1,2013-09-01T12:06:00Z,28.4073,-96.7122,0.0,3.9,202.0,5.0,'11111222,11111222,11111222' 
TCOON,ioos:station:TCOON:031:1,2013-09-01T12:12:00Z,28.4073,-96.7122,0.0,3.5,196.0,4.4,'11111222,11111222,11111222' 
TCOON,ioos:station:TCOON:031:1,2013-09-01T12:18:00Z,28.4073,-96.7122,0.0,3.3,197.0,3.9,'11111222,11111222,11111222' 
TCOON,ioos:station:TCOON:031:1,2013-09-01T12:24:00Z,28.4073,-96.7122,0.0,3.4,202.0,4.1,'11111222,11111222,11111222' 
TCOON,ioos:station:TCOON:031:1,2013-09-01T12:30:00Z,28.4073,-96.7122,0.0,3.3,194.0,3.7,'11111222,11111222,11111222' 
TCOON,ioos:station:TCOON:031:1,2013-09-01T12:36:00Z,28.4073,-96.7122,0.0,3.5,201.0,4.0,'11111222,11111222,11111222' 
TCOON,ioos:station:TCOON:031:1,2013-09-01T12:42:00Z,28.4073,-96.7122,0.0,3.3,196.0,4.1,'11111222,11111222,11111222' 
TCOON,ioos:station:TCOON:031:1,2013-09-01T12:48:00Z,28.4073,-96.7122,0.0,3.0,203.0,3.7,'11111222,11111222,11111222' 
TCOON,ioos:station:TCOON:031:1,2013-09-01T12:54:00Z,28.4073,-96.7122,0.0,3.6,193.0,4.1,'11111222,11111222,11111222' 
TCOON,ioos:station:TCOON:031:1,2013-09-01T13:00:00Z,28.4073,-96.7122,0.0,2.8,207.0,3.8,'11111222,11111222,11111222' 
TCOON,ioos:station:TCOON:031:1,2013-09-01T13:06:00Z,28.4073,-96.7122,0.0,3.2,198.0,4.0,'11111222,11111222,11111222' 
TCOON,ioos:station:TCOON:031:1,2013-09-01T13:12:00Z,28.4073,-96.7122,0.0,2.8,202.0,3.6,'11111222,11111222,11111222' 
TCOON,ioos:station:TCOON:031:1,2013-09-01T13:18:00Z,28.4073,-96.7122,0.0,2.8,207.0,3.2,'11111222,11111222,11111222' 
TCOON,ioos:station:TCOON:031:1,2013-09-01T13:24:00Z,28.4073,-96.7122,0.0,2.9,201.0,3.4,'11111222,11111222,11111222' 
TCOON,ioos:station:TCOON:031:1,2013-09-01T13:30:00Z,28.4073,-96.7122,0.0,2.8,197.0,3.2,'11111222,11111222,11111222' 
TCOON,ioos:station:TCOON:031:1,2013-09-01T13:36:00Z,28.4073,-96.7122,0.0,2.7,193.0,3.4,'11111222,11111222,11111222' 
TCOON,ioos:station:TCOON:031:1,2013-09-01T13:42:00Z,28.4073,-96.7122,0.0,2.3,204.0,2.8,'11111222,11111222,11111222' 
TCOON,ioos:station:TCOON:031:1,2013-09-01T13:48:00Z,28.4073,-96.7122,0.0,2.5,198.0,2.9,'11111222,11111222,11111222' 
TCOON,ioos:station:TCOON:031:1,2013-09-01T13:54:00Z,28.4073,-96.7122,0.0,2.4,195.0,2.8,'11111222,11111222,11111222' 
TCOON,ioos:station:TCOON:031:1,2013-09-01T14:00:00Z,28.4073,-96.7122,0.0,2.2,194.0,3.0,'11111222,11111222,11111222' 
TCOON,ioos:station:TCOON:031:1,2013-09-01T14:06:00Z,28.4073,-96.7122,0.0,2.2,205.0,2.9,'11111222,11111222,11111222' 
TCOON,ioos:station:TCOON:031:1,2013-09-01T14:12:00Z,28.4073,-96.7122,0.0,2.2,191.0,2.7,'11111222,11111222,11111222' 
TCOON,ioos:station:TCOON:031:1,2013-09-01T14:18:00Z,28.4073,-96.7122,0.0,2.3,203.0,2.7,'11111222,11111222,11111222' 
TCOON,ioos:station:TCOON:031:1,2013-09-01T14:24:00Z,28.4073,-96.7122,0.0,2.3,206.0,3.0,'11111222,11111222,11111222' 
TCOON,ioos:station:TCOON:031:1,2013-09-01T14:30:00Z,28.4073,-96.7122,0.0,2.2,207.0,2.6,'11111222,11111222,11111222' 
TCOON,ioos:station:TCOON:031:1,2013-09-01T14:36:00Z,28.4073,-96.7122,0.0,1.8,197.0,2.3,'11111222,11111222,11111222' 
TCOON,ioos:station:TCOON:031:1,2013-09-01T14:42:00Z,28.4073,-96.7122,0.0,2.1,179.0,2.4,'11111222,11111222,11111222' 
TCOON,ioos:station:TCOON:031:1,2013-09-01T14:48:00Z,28.4073,-96.7122,0.0,1.7,191.0,2.9,'11111222,11111222,11111222' 
TCOON,ioos:station:TCOON:031:1,2013-09-01T14:54:00Z,28.4073,-96.7122,0.0,2.1,192.0,2.5,'11111222,11111222,11111222' 
TCOON,ioos:station:TCOON:031:1,2013-09-01T15:00:00Z,28.4073,-96.7122,0.0,2.6,182.0,3.2,'11111222,11111222,11111222' 
TCOON,ioos:station:TCOON:031:1,2013-09-01T15:06:00Z,28.4073,-96.7122,0.0,2.4,181.0,3.0,'11111222,11111222,11111222' 
TCOON,ioos:station:TCOON:031:1,2013-09-01T15:12:00Z,28.4073,-96.7122,0.0,2.6,184.0,3.0,'11111222,11111222,11111222' 
TCOON,ioos:station:TCOON:031:1,2013-09-01T15:18:00Z,28.4073,-96.7122,0.0,2.2,207.0,3.1,'11111222,11111222,11111222' 
TCOON,ioos:station:TCOON:031:1,2013-09-01T15:24:00Z,28.4073,-96.7122,0.0,1.9,249.0,2.7,'11111222,11111222,11111222' 
TCOON,ioos:station:TCOON:031:1,2013-09-01T15:30:00Z,28.4073,-96.7122,0.0,1.6,225.0,3.2,'11111222,11111222,11111222' 
TCOON,ioos:station:TCOON:031:1,2013-09-01T15:36:00Z,28.4073,-96.7122,0.0,1.1,228.0,1.7,'11111222,11111222,11111222' 
TCOON,ioos:station:TCOON:031:1,2013-09-01T15:42:00Z,28.4073,-96.7122,0.0,1.2,218.0,2.0,'11111222,11111222,11111222' 
TCOON,ioos:station:TCOON:031:1,2013-09-01T15:48:00Z,28.4073,-96.7122,0.0,1.5,242.0,1.8,'11111222,11111222,11111222' 
TCOON,ioos:station:TCOON:031:1,2013-09-01T15:54:00Z,28.4073,-96.7122,0.0,0.6,255.0,1.5,'11111222,11111222,11111222' 
TCOON,ioos:station:TCOON:031:1,2013-09-01T16:00:00Z,28.4073,-96.7122,0.0,1.0,213.0,1.2,'11111222,11111222,11111222' 
TCOON,ioos:station:TCOON:031:1,2013-09-01T16:06:00Z,28.4073,-96.7122,0.0,0.9,229.0,1.4,'11111222,11111222,11111222' 
TCOON,ioos:station:TCOON:031:1,2013-09-01T16:12:00Z,28.4073,-96.7122,0.0,1.0,212.0,1.6,'11111222,11111222,11111222' 
TCOON,ioos:station:TCOON:031:1,2013-09-01T16:18:00Z,28.4073,-96.7122,0.0,1.1,229.0,1.6,'11111222,11111222,11111222' 
TCOON,ioos:station:TCOON:031:1,2013-09-01T16:24:00Z,28.4073,-96.7122,0.0,2.2,177.0,3.1,'11111222,11111222,11111222' 
TCOON,ioos:station:TCOON:031:1,2013-09-01T16:30:00Z,28.4073,-96.7122,0.0,3.1,150.0,3.6,'11111222,11111222,11111222' 
TCOON,ioos:station:TCOON:031:1,2013-09-01T16:36:00Z,28.4073,-96.7122,0.0,3.5,155.0,3.8,'11111222,11111222,11111222' 
TCOON,ioos:station:TCOON:031:1,2013-09-01T16:42:00Z,28.4073,-96.7122,0.0,3.0,154.0,3.6,'11111222,11111222,11111222' 
TCOON,ioos:station:TCOON:031:1,2013-09-01T16:48:00Z,28.4073,-96.7122,0.0,3.2,156.0,3.6,'11111222,11111222,11111222' 
TCOON,ioos:station:TCOON:031:1,2013-09-01T16:54:00Z,28.4073,-96.7122,0.0,3.5,147.0,4.0,'11111222,11111222,11111222' 
TCOON,ioos:station:TCOON:031:1,2013-09-01T17:00:00Z,28.4073,-96.7122,0.0,3.6,150.0,4.2,'11111222,11111222,11111222' 
TCOON,ioos:station:TCOON:031:1,2013-09-01T17:06:00Z,28.4073,-96.7122,0.0,3.4,158.0,4.0,'11111222,11111222,11111222' 
TCOON,ioos:station:TCOON:031:1,2013-09-01T17:12:00Z,28.4073,-96.7122,0.0,4.0,152.0,4.5,'11111222,11111222,11111222' 
TCOON,ioos:station:TCOON:031:1,2013-09-01T17:18:00Z,28.4073,-96.7122,0.0,4.0,157.0,4.7,'11111222,11111222,11111222' 
TCOON,ioos:station:TCOON:031:1,2013-09-01T17:24:00Z,28.4073,-96.7122,0.0,3.7,155.0,4.4,'11111222,11111222,11111222' 
TCOON,ioos:station:TCOON:031:1,2013-09-01T17:30:00Z,28.4073,-96.7122,0.0,4.5,152.0,5.2,'11111222,11111222,11111222' 
TCOON,ioos:station:TCOON:031:1,2013-09-01T17:36:00Z,28.4073,-96.7122,0.0,4.0,158.0,4.9,'11111222,11111222,11111222' 
TCOON,ioos:station:TCOON:031:1,2013-09-01T17:42:00Z,28.4073,-96.7122,0.0,4.5,161.0,5.0,'11111222,11111222,11111222' 
TCOON,ioos:station:TCOON:031:1,2013-09-01T17:48:00Z,28.4073,-96.7122,0.0,5.2,163.0,5.9,'11111222,11111222,11111222' 
TCOON,ioos:station:TCOON:031:1,2013-09-01T17:54:00Z,28.4073,-96.7122,0.0,4.4,158.0,5.4,'11111222,11111222,11111222' 
TCOON,ioos:station:TCOON:031:1,2013-09-01T18:00:00Z,28.4073,-96.7122,0.0,4.6,160.0,5.6,'11111222,11111222,11111222' 
TCOON,ioos:station:TCOON:031:1,2013-09-01T18:06:00Z,28.4073,-96.7122,0.0,5.0,162.0,5.6,'11111222,11111222,11111222' 
TCOON,ioos:station:TCOON:031:1,2013-09-01T18:12:00Z,28.4073,-96.7122,0.0,4.6,164.0,5.5,'11111222,11111222,11111222' 
TCOON,ioos:station:TCOON:031:1,2013-09-01T18:18:00Z,28.4073,-96.7122,0.0,5.2,158.0,5.7,'11111222,11111222,11111222' 
TCOON,ioos:station:TCOON:031:1,2013-09-01T18:24:00Z,28.4073,-96.7122,0.0,5.5,165.0,6.1,'11111222,11111222,11111222' 
TCOON,ioos:station:TCOON:031:1,2013-09-01T18:30:00Z,28.4073,-96.7122,0.0,4.7,167.0,5.7,'11111222,11111222,11111222' 
TCOON,ioos:station:TCOON:031:1,2013-09-01T18:36:00Z,28.4073,-96.7122,0.0,4.8,171.0,5.6,'11111222,11111222,11111222' 
TCOON,ioos:station:TCOON:031:1,2013-09-01T18:42:00Z,28.4073,-96.7122,0.0,5.1,171.0,6.1,'11111222,11111222,11111222' 
TCOON,ioos:station:TCOON:031:1,2013-09-01T18:48:00Z,28.4073,-96.7122,0.0,5.0,166.0,6.2,'11111222,11111222,11111222' 
TCOON,ioos:station:TCOON:031:1,2013-09-01T18:54:00Z,28.4073,-96.7122,0.0,5.2,164.0,5.6,'11111222,11111222,11111222' 
TCOON,ioos:station:TCOON:031:1,2013-09-01T19:00:00Z,28.4073,-96.7122,0.0,5.5,162.0,6.0,'11111222,11111222,11111222' 
TCOON,ioos:station:TCOON:031:1,2013-09-01T19:06:00Z,28.4073,-96.7122,0.0,5.2,165.0,6.3,'11111222,11111222,11111222' 
TCOON,ioos:station:TCOON:031:1,2013-09-01T19:12:00Z,28.4073,-96.7122,0.0,4.8,156.0,5.9,'11111222,11111222,11111222' 
TCOON,ioos:station:TCOON:031:1,2013-09-01T19:18:00Z,28.4073,-96.7122,0.0,5.1,164.0,5.8,'11111222,11111222,11111222' 
TCOON,ioos:station:TCOON:031:1,2013-09-01T19:24:00Z,28.4073,-96.7122,0.0,5.2,159.0,6.5,'11111222,11111222,11111222' 
TCOON,ioos:station:TCOON:031:1,2013-09-01T19:30:00Z,28.4073,-96.7122,0.0,5.3,162.0,6.3,'11111222,11111222,11111222' 
TCOON,ioos:station:TCOON:031:1,2013-09-01T19:36:00Z,28.4073,-96.7122,0.0,5.8,162.0,6.8,'11111222,11111222,11111222' 
TCOON,ioos:station:TCOON:031:1,2013-09-01T19:42:00Z,28.4073,-96.7122,0.0,5.7,162.0,7.1,'11111222,11111222,11111222' 
TCOON,ioos:station:TCOON:031:1,2013-09-01T19:48:00Z,28.4073,-96.7122,0.0,6.4,162.0,7.7,'11111222,11111222,11111222' 
TCOON,ioos:station:TCOON:031:1,2013-09-01T19:54:00Z,28.4073,-96.7122,0.0,6.4,164.0,7.4,'11111222,11111222,11111222' 
TCOON,ioos:station:TCOON:031:1,2013-09-01T20:00:00Z,28.4073,-96.7122,0.0,6.0,162.0,7.0,'11111222,11111222,11111222' 
TCOON,ioos:station:TCOON:031:1,2013-09-01T20:06:00Z,28.4073,-96.7122,0.0,6.7,158.0,7.4,'11111222,11111222,11111222' 
TCOON,ioos:station:TCOON:031:1,2013-09-01T20:12:00Z,28.4073,-96.7122,0.0,6.5,160.0,7.7,'11111222,11111222,11111222' 
TCOON,ioos:station:TCOON:031:1,2013-09-01T20:18:00Z,28.4073,-96.7122,0.0,6.3,155.0,8.0,'11111222,11111222,11111222' 